Creston, IA

6:28 AM CDT on August 18, 2017 (GMT -0500)
Creston Municipal

Weather History for KCSQ - May, 2014

Change the Weather History Date:

Wednesday, May 7, 2014

  Actual Average Record
Temperature  
Mean Temperature 76 °F -  
Max Temperature 89 °F 71 °F 90 °F (1966)
Min Temperature 64 °F 47 °F 29 °F (1954)
Cooling Degree Days 12    
Growing Degree Days 26 (Base 50)    
Moisture  
Dew Point 61 °F    
Average Humidity 64    
Maximum Humidity 94    
Minimum Humidity 36    
Precipitation  
Precipitation 0.00 in - - ()
Sea Level Pressure  
Sea Level Pressure 29.60 in    
Wind  
Wind Speed 13 mph (SSE)    
Max Wind Speed 26 mph    
Max Gust Speed 33 mph    
Visibility 10 miles    
Events      
Averages and records for this station are not official NWS values.
T = Trace of Precipitation, MM = Missing Value Source: NWS Daily Summary

Daily Weather History Graph

Daily Weather History Graph

Search for Another Location

Airport or City:

Trip Planner

Search our weather history database for the weather conditions in past years. The results will help you decide how hot, cold, wet, or windy it might be!

Date:

Astronomy

May. 07, 2014 Rise Set
Actual Time 6:08 AM CDT 8:20 PM CDT
Civil Twilight 5:37 AM CDT 8:51 PM CDT
Nautical Twilight 5:00 AM CDT 9:28 PM CDT
Astronomical Twilight 4:19 AM CDT 10:10 PM CDT
Moon 1:22 PM CDT (5/7) 2:11 AM CDT (5/7)
Length of Visible Light 15h 13m
Length of Day
14h 12m
First Quarter, 55% of the Moon is Illuminated
May 7
First Quarter
May 14
Full
May 21
Last Quarter
May 28
New
Jun 5
First Quarter

Hourly Weather History & Observations

Time (CDT) Temp. Heat Index Dew Point Humidity Pressure Visibility Wind Dir Wind Speed Gust Speed Precip Events Conditions
12:15 AM 64.4 °F - 55.4 °F 73% 29.61 in 10.0 mi East 9.2 mph - N/A   Clear
12:35 AM 64.4 °F - 55.4 °F 73% 29.61 in 10.0 mi ESE 8.1 mph - N/A   Clear
1:15 AM 64.4 °F - 55.4 °F 73% 29.60 in 10.0 mi ESE 9.2 mph - N/A   Clear
1:35 AM 64.4 °F - 55.4 °F 73% 29.60 in 10.0 mi SE 6.9 mph - N/A   Clear
1:55 AM 64.4 °F - 55.4 °F 73% 29.60 in 10.0 mi ESE 6.9 mph - N/A   Clear
2:15 AM 64.4 °F - 57.2 °F 77% 29.59 in 10.0 mi ESE 5.8 mph - N/A   Clear
2:35 AM 66.2 °F - 59.0 °F 78% 29.59 in 10.0 mi SSE 10.4 mph - N/A   Clear
2:55 AM 66.2 °F - 59.0 °F 78% 29.59 in 10.0 mi SE 8.1 mph - N/A   Clear
3:15 AM 64.4 °F - 59.0 °F 83% 29.59 in 10.0 mi SE 6.9 mph - N/A   Clear
3:35 AM 64.4 °F - 59.0 °F 83% 29.58 in 10.0 mi SE 8.1 mph - N/A   Clear
3:55 AM 64.4 °F - 59.0 °F 83% 29.59 in 10.0 mi SE 6.9 mph - N/A   Clear
4:15 AM 64.4 °F - 60.8 °F 88% 29.59 in 10.0 mi SE 8.1 mph - N/A   Clear
4:35 AM 64.4 °F - 60.8 °F 88% 29.59 in 10.0 mi SE 5.8 mph - N/A   Clear
4:55 AM 64.4 °F - 60.8 °F 88% 29.58 in 10.0 mi SE 5.8 mph - N/A   Clear
5:15 AM 66.2 °F - 60.8 °F 83% 29.58 in 10.0 mi SSE 8.1 mph - N/A   Clear
5:35 AM 64.4 °F - 60.8 °F 88% 29.59 in 10.0 mi SE 8.1 mph - N/A   Clear
5:55 AM 64.4 °F - 60.8 °F 88% 29.59 in 10.0 mi SSE 8.1 mph - N/A   Clear
6:15 AM 64.4 °F - 60.8 °F 88% 29.59 in 10.0 mi SSE 8.1 mph - N/A   Clear
6:35 AM 64.4 °F - 60.8 °F 88% 29.60 in 10.0 mi SE 8.1 mph - N/A   Clear
6:55 AM 64.4 °F - 62.6 °F 94% 29.61 in 10.0 mi SSE 8.1 mph - N/A   Clear
7:15 AM 64.4 °F - 62.6 °F 94% 29.61 in 10.0 mi SSE 8.1 mph - N/A   Clear
7:35 AM 66.2 °F - 62.6 °F 88% 29.62 in 10.0 mi SSE 6.9 mph - N/A   Clear
7:55 AM 68.0 °F - 64.4 °F 88% 29.62 in 10.0 mi South 11.5 mph - N/A   Clear
8:15 AM 69.8 °F - 64.4 °F 83% 29.62 in 10.0 mi South 13.8 mph - N/A   Clear
8:35 AM 71.6 °F - 64.4 °F 78% 29.61 in 10.0 mi South 18.4 mph - N/A   Clear
8:55 AM 71.6 °F - 64.4 °F 78% 29.62 in 10.0 mi South 17.3 mph 25.3 mph N/A   Clear
9:15 AM 73.4 °F - 64.4 °F 73% 29.62 in 10.0 mi South 19.6 mph - N/A   Clear
9:35 AM 75.2 °F - 62.6 °F 65% 29.61 in 10.0 mi South 25.3 mph - N/A   Clear
9:55 AM 75.2 °F - 64.4 °F 69% 29.60 in 10.0 mi South 23.0 mph 28.8 mph N/A   Clear
10:15 AM 77.0 °F - 64.4 °F 65% 29.60 in 10.0 mi South 17.3 mph 27.6 mph N/A   Clear
10:35 AM 77.0 °F - 62.6 °F 61% 29.60 in 10.0 mi SSW 19.6 mph - N/A   Clear
10:55 AM 77.0 °F - 62.6 °F 61% 29.60 in 10.0 mi SSW 18.4 mph 27.6 mph N/A   Clear
11:15 AM 78.8 °F - 64.4 °F 61% 29.60 in 10.0 mi SSW 15.0 mph 21.9 mph N/A   Clear
11:35 AM 78.8 °F - 64.4 °F 61% 29.60 in 10.0 mi South 17.3 mph - N/A   Clear
11:55 AM 80.6 °F 81.8 °F 62.6 °F 54% 29.61 in 10.0 mi South 16.1 mph 32.2 mph N/A   Clear
12:15 PM 80.6 °F 81.8 °F 62.6 °F 54% 29.62 in 10.0 mi SSE 15.0 mph 23.0 mph N/A   Clear
12:35 PM 80.6 °F 81.8 °F 62.6 °F 54% 29.62 in 10.0 mi South 11.5 mph - N/A   Clear
12:55 PM 82.4 °F 83.9 °F 64.4 °F 54% 29.62 in 10.0 mi South 12.7 mph 19.6 mph N/A   Clear
1:15 PM 82.4 °F 83.4 °F 62.6 °F 51% 29.61 in 10.0 mi South 16.1 mph 24.2 mph N/A   Clear
1:35 PM 84.2 °F 85.0 °F 62.6 °F 48% 29.61 in 10.0 mi South 17.3 mph 24.2 mph N/A   Clear
1:55 PM 84.2 °F 85.0 °F 62.6 °F 48% 29.61 in 10.0 mi South 20.7 mph 27.6 mph N/A   Clear
2:15 PM 84.2 °F 85.0 °F 62.6 °F 48% 29.60 in - South 18.4 mph - N/A   Clear
2:35 PM 86.0 °F 86.6 °F 62.6 °F 45% 29.60 in 10.0 mi South 18.4 mph - N/A   Clear
2:55 PM 86.0 °F 86.6 °F 62.6 °F 45% 29.60 in 10.0 mi South 15.0 mph 26.5 mph N/A   Clear
3:15 PM 87.8 °F 87.6 °F 60.8 °F 40% 29.58 in 10.0 mi South 21.9 mph 28.8 mph N/A   Clear
3:35 PM 87.8 °F 87.6 °F 60.8 °F 40% 29.57 in 10.0 mi South 19.6 mph - N/A   Clear
3:55 PM 87.8 °F 87.6 °F 60.8 °F 40% 29.57 in 10.0 mi South 19.6 mph 27.6 mph N/A   Clear
4:15 PM 87.8 °F 87.6 °F 60.8 °F 40% 29.57 in 10.0 mi South 19.6 mph 29.9 mph N/A   Clear
4:35 PM 89.6 °F 88.9 °F 59.0 °F 36% 29.56 in 10.0 mi South 23.0 mph - N/A   Clear
4:55 PM 89.6 °F 88.9 °F 59.0 °F 36% 29.56 in 10.0 mi South 23.0 mph - N/A   Clear
5:15 PM 89.6 °F 88.9 °F 59.0 °F 36% 29.57 in 10.0 mi South 21.9 mph 31.1 mph N/A   Clear
5:35 PM 87.8 °F 87.1 °F 59.0 °F 38% 29.56 in 10.0 mi South 23.0 mph 32.2 mph N/A   Clear
5:55 PM 87.8 °F 87.1 °F 59.0 °F 38% 29.57 in 10.0 mi South 24.2 mph 33.4 mph N/A   Clear
6:15 PM 87.8 °F 87.1 °F 59.0 °F 38% 29.56 in 10.0 mi South 25.3 mph 32.2 mph N/A   Clear
6:35 PM 87.8 °F 87.1 °F 59.0 °F 38% 29.56 in 10.0 mi South 23.0 mph 33.4 mph N/A   Clear
6:55 PM 86.0 °F 86.1 °F 60.8 °F 43% 29.56 in 10.0 mi South 26.5 mph 32.2 mph N/A   Clear
7:15 PM 84.2 °F 83.8 °F 59.0 °F 42% 29.57 in 10.0 mi South 20.7 mph 32.2 mph N/A   Clear
7:35 PM 84.2 °F 84.4 °F 60.8 °F 45% 29.57 in 10.0 mi South 20.7 mph 27.6 mph N/A   Clear
7:55 PM 82.4 °F 83.4 °F 62.6 °F 51% 29.58 in 10.0 mi South 19.6 mph - N/A   Clear
8:15 PM 80.6 °F 81.8 °F 62.6 °F 54% 29.60 in 10.0 mi South 18.4 mph 25.3 mph N/A   Clear
8:35 PM 80.6 °F 81.8 °F 62.6 °F 54% 29.60 in 10.0 mi South 20.7 mph - N/A   Clear
8:55 PM 80.6 °F 81.8 °F 62.6 °F 54% 29.59 in 10.0 mi South 21.9 mph 31.1 mph N/A   Clear
9:15 PM 78.8 °F - 62.6 °F 57% 29.60 in 10.0 mi South 20.7 mph - N/A   Clear
9:35 PM 78.8 °F - 64.4 °F 61% 29.61 in 10.0 mi South 18.4 mph 26.5 mph N/A   Clear
9:55 PM 77.0 °F - 64.4 °F 65% 29.62 in 10.0 mi South 19.6 mph - N/A   Clear
10:15 PM 77.0 °F - 64.4 °F 65% 29.64 in 10.0 mi South 15.0 mph 20.7 mph N/A   Clear
10:35 PM 75.2 °F - 64.4 °F 69% 29.64 in 10.0 mi South 12.7 mph - N/A   Clear
10:55 PM 75.2 °F - 64.4 °F 69% 29.65 in 10.0 mi South 16.1 mph - N/A   Clear
11:15 PM 75.2 °F - 64.4 °F 69% 29.66 in 10.0 mi South 17.3 mph - N/A   Clear
11:35 PM 75.2 °F - 64.4 °F 69% 29.66 in 10.0 mi South 17.3 mph 24.2 mph N/A   Clear
11:55 PM 75.2 °F - 62.6 °F 65% 29.66 in 10.0 mi South 15.0 mph 20.7 mph N/A   Clear